Wind_Speed
33 35 35 36 35 32 32 31 28 24 21 18 16 13 10 7 5 2 1 2 4 6
33 34 34 31 32 30 29 32 28 24 21 18 15 12 9 6 3 2 2 3 5 6
31 33 34 34 31 29 31 30 29 24 21 18 14 11 9 6 4 2 3 4 7 9
29 30 31 31 30 34 32 31 28 24 21 17 13 10 7 5 4 3 4 6 8 9
32 31 31 29 31 33 30 29 26 22 19 15 11 8 6 4 3 4 6 8 9 11
32 32 31 32 31 31 30 27 24 21 18 14 10 7 4 3 4 6 7 9 10 12
29 32 32 32 32 33 29 27 23 20 16 11 8 4 2 1 4 7 9 10 11 13
30 32 32 33 33 30 27 24 21 18 14 10 6 4 4 4 6 8 10 12 13 13
32 32 30 29 32 30 27 23 19 14 10 8 5 3 4 5 8 10 11 13 14 15
27 28 27 29 26 27 24 20 17 11 8 6 2 3 6 6 9 11 11 14 16 16
31 22 22 25 24 21 19 17 14 9 6 4 1 5 7 8 10 11 12 14 16 14
32 23 19 22 24 21 17 13 9 6 3 3 1 4 8 8 11 12 13 13 15 16
25 25 22 23 21 16 11 10 6 4 1 2 3 2 6 7 11 13 14 16 17 16
25 25 22 19 16 13 10 7 4 1 1 3 5 6 5 8 11 13 16 18 20 19
Wind_Direction
178 170 169 168 167 164 161 163 165 163 164 165 157 153 153 150 155 192 185 260 278 289
170 169 165 163 163 159 159 163 164 163 165 161 153 152 149 150 168 199 233 279 282 291
164 172 167 160 158 156 159 160 161 163 162 156 154 157 153 173 195 221 236 276 280 289
163 156 155 154 153 154 160 164 159 161 158 154 153 154 153 176 204 249 272 281 289 291
149 149 151 148 147 153 152 156 154 154 150 148 150 151 162 182 226 269 284 288 290 296
144 142 140 139 143 144 147 147 149 149 151 151 151 152 170 220 266 284 291 298 298 296
139 137 135 136 138 142 149 148 148 147 148 145 145 151 197 270 297 298 300 302 299 299
136 132 133 132 138 144 143 144 146 143 140 137 124 179 234 281 291 300 302 302 302 301
127 125 123 130 136 140 141 141 138 137 139 133 151 225 300 324 317 313 310 308 304 301
114 118 126 127 135 139 140 133 126 133 128 117 206 287 320 328 317 319 319 309 302 300
110 115 133 134 135 136 129 130 130 129 138 146 332 298 311 324 328 325 314 309 308 307
130 135 129 131 134 129 133 131 125 141 108 71 313 297 314 334 336 328 320 321 320 317
136 134 144 138 128 124 129 128 122 95 103 278 312 270 329 333 330 328 326 322 320 315
141 143 129 123 122 123 112 108 111 96 337 283 301 308 313 319 323 321 311 313 316 317
Height
725 728 736 742 749 757 761 768 773 779 783 788 790 794 797 800 802 804 805 806 807 808
723 727 733 740 749 756 761 765 772 776 781 787 789 793 796 799 801 802 803 804 805 806
721 725 732 740 747 755 759 764 770 776 782 786 789 792 795 797 799 800 801 802 802 803
720 726 735 741 747 752 758 763 769 776 781 784 788 791 794 796 797 798 798 799 799 800
720 726 735 741 747 751 758 765 770 776 780 784 788 790 793 795 796 796 796 796 797 796
720 726 733 740 748 751 760 766 771 775 780 783 787 790 792 793 794 795 794 794 793 793
722 727 734 741 748 751 761 766 771 775 779 782 786 789 791 791 792 793 792 791 790 790
724 730 736 742 748 756 762 768 771 775 778 782 784 788 790 789 790 789 789 788 787 787
726 730 739 746 749 756 760 767 771 776 779 780 783 786 787 787 787 787 786 785 784 784
732 739 745 748 757 758 764 765 769 777 779 780 782 783 785 786 786 784 783 783 782 781
737 745 752 757 759 767 765 768 770 775 778 779 780 782 783 785 783 782 782 781 780 779
743 756 757 759 761 761 766 770 770 776 776 777 780 781 782 782 781 781 780 779 777 775
744 746 761 761 760 761 767 770 773 774 777 779 780 782 781 781 780 779 778 776 774 772
753 756 756 758 761 766 769 772 775 777 778 779 779 780 780 779 778 777 775 773 770 768